Weather History for KSXT - March, 2014

Change the Weather History Date:

Wednesday, March 12, 2014

  Actual Average Record
Temperature  
Mean Temperature 47 °F -  
Max Temperature 57 °F 43 °F 63 °F (2005)
Min Temperature 37 °F 32 °F 24 °F (2006)
Degree Days  
Heating Degree Days 18    
Moisture  
Dew Point 21 °F    
Average Humidity 36    
Maximum Humidity 55    
Minimum Humidity 24    
Precipitation  
Precipitation 0.00 in - - ()
Sea Level Pressure  
Sea Level Pressure 30.21 in    
Wind  
Wind Speed 12 mph (ESE)    
Max Wind Speed 21 mph    
Max Gust Speed 30 mph    
Visibility 10 miles    
Events      
Averages and records for this station are not official NWS values.
T = Trace of Precipitation, MM = Missing Value Source: NWS Daily Summary

Daily Weather History Graph

Daily Weather History Graph

Search for Another Location

Airport or City:

Trip Planner

Search our weather history database for the weather conditions in past years. The results will help you decide how hot, cold, wet, or windy it might be!

Date:

Astronomy

Mar. 12, 2014 Rise Set
Actual Time 7:30 AM PDT 7:16 PM PDT
Civil Twilight 7:02 AM PDT 7:44 PM PDT
Nautical Twilight 6:29 AM PDT 8:17 PM PDT
Astronomical Twilight 5:56 AM PDT 8:50 PM PDT
Moon 3:48 PM PDT (3/12) 5:09 AM PDT (3/12)
Length of Visible Light 12h 42m
Length of Day
11h 46m
Waxing Gibbous, 86% of the Moon is Illuminated
Mar 12
Waxing Gibbous
Mar 16
Full
Mar 23
Last Quarter
Mar 30
New
Apr 7
First Quarter

Hourly Weather History & Observations

Time (PDT) Temp. Windchill Dew Point Humidity Pressure Visibility Wind Dir Wind Speed Gust Speed Precip Events Conditions
12:56 AM 41.0 °F 32.8 °F 23.0 °F 49% 30.28 in 10.0 mi ESE 16.1 mph 29.9 mph N/A   Clear
1:56 AM 37.9 °F 30.5 °F 23.0 °F 55% 30.28 in 10.0 mi ESE 11.5 mph 23.0 mph N/A   Clear
2:56 AM 37.9 °F 31.5 °F 21.9 °F 53% 30.26 in 10.0 mi East 9.2 mph - N/A   Clear
3:56 AM 37.9 °F 29.6 °F 21.0 °F 51% 30.26 in 10.0 mi ESE 13.8 mph 21.9 mph N/A   Clear
4:56 AM 39.0 °F 29.9 °F 19.9 °F 46% 30.26 in 10.0 mi SE 17.3 mph - N/A   Clear
5:56 AM 39.0 °F 29.9 °F 19.0 °F 45% 30.26 in 10.0 mi ESE 17.3 mph 28.8 mph N/A   Clear
6:56 AM 37.9 °F 28.2 °F 19.0 °F 47% 30.26 in 10.0 mi ESE 18.4 mph - N/A   Clear
7:56 AM 39.0 °F 29.0 °F 19.0 °F 45% 30.26 in 10.0 mi ESE 20.7 mph - N/A   Clear
8:56 AM 42.1 °F 33.9 °F 19.0 °F 40% 30.27 in 10.0 mi ESE 17.3 mph - N/A   Clear
9:56 AM 45.0 °F 37.6 °F 19.9 °F 37% 30.27 in 10.0 mi ESE 17.3 mph 27.6 mph N/A   Clear
10:56 AM 48.9 °F - 23.0 °F 36% 30.25 in 10.0 mi ESE 13.8 mph - N/A   Clear
11:56 AM 51.1 °F - 21.9 °F 32% 30.24 in 10.0 mi ESE 11.5 mph 19.6 mph N/A   Clear
12:56 PM 53.1 °F - 24.1 °F 32% 30.23 in 10.0 mi ESE 10.4 mph 20.7 mph N/A   Clear
1:56 PM 57.0 °F - 26.1 °F 30% 30.21 in 10.0 mi Variable 6.9 mph - N/A   Clear
2:56 PM 55.9 °F - 24.1 °F 29% 30.20 in 10.0 mi Variable 5.8 mph - N/A   Clear
3:56 PM 57.9 °F - 24.1 °F 27% 30.18 in 10.0 mi Calm Calm - N/A   Clear
4:56 PM 55.9 °F - 24.1 °F 29% 30.18 in 10.0 mi Calm Calm - N/A   Clear
5:56 PM 54.0 °F - 18.0 °F 24% 30.17 in 10.0 mi NW 3.5 mph - N/A   Clear
6:56 PM 53.1 °F - 19.9 °F 27% 30.17 in 10.0 mi Calm Calm - N/A   Clear
7:56 PM 53.1 °F - 19.0 °F 26% 30.16 in 10.0 mi NE 4.6 mph - N/A   Clear
8:56 PM 52.0 °F - 19.0 °F 27% 30.16 in 10.0 mi East 3.5 mph - N/A   Clear
9:56 PM 51.1 °F - 19.0 °F 28% 30.14 in 10.0 mi East 3.5 mph - N/A   Clear
10:56 PM 52.0 °F - 18.0 °F 26% 30.11 in 10.0 mi SE 4.6 mph - N/A   Clear
11:56 PM 51.1 °F - 17.1 °F 26% 30.10 in 10.0 mi Calm Calm - N/A   Clear